Moriarty, NM

3:36 PM MST on November 18, 2017 (GMT -0700)
Moriarty

Weather History for K0E0 - December, 2012

Change the Weather History Date:

Monday, December 3, 2012

  Actual Average (KABQ) Record (KABQ)
Temperature  
Mean Temperature 45 °F -  
Max Temperature 60 °F 51 °F 65 °F (1917)
Min Temperature 30 °F 26 °F 12 °F (1934)
Degree Days  
Heating Degree Days 20    
Moisture  
Dew Point 23 °F    
Average Humidity 41    
Maximum Humidity 70    
Minimum Humidity 26    
Precipitation  
Precipitation 0.00 in - - ()
Sea Level Pressure  
Sea Level Pressure 30.13 in    
Wind  
Wind Speed 11 mph (WNW)    
Max Wind Speed 22 mph    
Max Gust Speed 30 mph    
Visibility 10 miles    
Events      
Averages and records for this station are not official NWS values.
T = Trace of Precipitation, MM = Missing Value Source: NWS Daily Summary

Daily Weather History Graph

Daily Weather History Graph

Search for Another Location

Airport or City:

Trip Planner

Search our weather history database for the weather conditions in past years. The results will help you decide how hot, cold, wet, or windy it might be!

Date:

Astronomy

Dec. 03, 2012 Rise Set
Actual Time 6:55 AM MST 4:52 PM MST
Civil Twilight 6:28 AM MST 5:20 PM MST
Nautical Twilight 5:56 AM MST 5:51 PM MST
Astronomical Twilight 5:26 AM MST 6:22 PM MST
Moon 9:35 PM MST (12/3) 10:25 AM MST (12/3)
Length of Visible Light 10h 51m
Length of Day
9h 56m
Waning Gibbous, 77% of the Moon is Illuminated
Dec 3
Waning Gibbous
Dec 6
Last Quarter
Dec 13
New
Dec 19
First Quarter
Dec 28
Full

Hourly Weather History & Observations

Time (MST) Temp. Windchill Dew Point Humidity Pressure Visibility Wind Dir Wind Speed Gust Speed Precip Events Conditions
12:15 AM 46.9 °F - 13.3 °F 26% 30.06 in 10.0 mi WSW 18.4 mph - N/A   Clear
12:35 AM 45.7 °F 40.2 °F 13.1 °F 27% 30.05 in 10.0 mi West 11.5 mph - N/A   Clear
12:55 AM 43.7 °F 38.1 °F 13.1 °F 29% 30.05 in 10.0 mi WNW 10.4 mph - N/A   Clear
1:15 AM 41.2 °F 34.5 °F 13.5 °F 32% 30.06 in 10.0 mi NW 11.5 mph - N/A   Clear
1:35 AM 42.6 °F 35.9 °F 13.8 °F 31% 30.06 in 10.0 mi West 12.7 mph - N/A   Clear
1:55 AM 44.4 °F 38.6 °F 14.5 °F 30% 30.06 in 10.0 mi West 11.5 mph - N/A   Clear
2:15 AM 40.1 °F 36.1 °F 13.5 °F 34% 30.06 in 10.0 mi West 5.8 mph - N/A   Clear
2:35 AM 38.1 °F 32.9 °F 13.5 °F 36% 30.06 in 10.0 mi WNW 6.9 mph - N/A   Clear
2:55 AM 40.3 °F 34.4 °F 14.0 °F 34% 30.05 in 10.0 mi WSW 9.2 mph - N/A   Clear
3:15 AM 36.5 °F 29.2 °F 13.5 °F 39% 30.04 in 10.0 mi West 10.4 mph - N/A   Clear
3:55 AM 36.5 °F - 15.1 °F 42% 30.05 in 10.0 mi Calm Calm - N/A   Clear
4:15 AM 38.8 °F 36.5 °F 15.8 °F 39% 30.05 in 10.0 mi West 3.5 mph - N/A   Clear
4:35 AM 37.4 °F 32.1 °F 16.3 °F 42% 30.04 in 10.0 mi SSW 6.9 mph - N/A   Clear
4:55 AM 40.6 °F 38.6 °F 18.0 °F 40% 30.05 in 10.0 mi West 3.5 mph 9.2 mph N/A   Clear
5:15 AM 38.7 °F - 18.0 °F 43% 30.05 in 10.0 mi Calm Calm - N/A   Clear
5:35 AM 42.1 °F - 19.0 °F 40% 30.07 in 10.0 mi Calm Calm - N/A   Clear
5:55 AM 38.8 °F 31.6 °F 19.9 °F 47% 30.07 in 10.0 mi WSW 11.5 mph - N/A   Clear
6:15 AM 41.9 °F 36.9 °F 21.7 °F 45% 30.08 in 10.0 mi WNW 8.1 mph - N/A   Clear
6:35 AM 40.6 °F 32.3 °F 21.6 °F 47% 30.08 in 10.0 mi West 16.1 mph - N/A   Clear
6:55 AM 44.1 °F 36.5 °F 21.6 °F 41% 30.09 in 10.0 mi West 17.3 mph - N/A   Clear
7:15 AM 44.2 °F 39.2 °F 21.4 °F 40% 30.10 in 10.0 mi NW 9.2 mph - N/A   Clear
7:35 AM 41.5 °F 36.4 °F 22.1 °F 46% 30.11 in 10.0 mi WNW 8.1 mph - N/A   Scattered Clouds
7:55 AM 46.8 °F - 22.6 °F 39% 30.10 in 10.0 mi West 13.8 mph - N/A   Scattered Clouds
8:15 AM 48.6 °F - 22.6 °F 36% 30.11 in 10.0 mi West 15.0 mph 19.6 mph N/A   Clear
8:35 AM 50.5 °F - 23.4 °F 35% 30.11 in 10.0 mi West 16.1 mph 20.7 mph N/A   Clear
8:55 AM 52.0 °F - 24.3 °F 34% 30.11 in 10.0 mi West 17.3 mph 23.0 mph N/A   Clear
9:15 AM 52.7 °F - 25.3 °F 35% 30.12 in 10.0 mi West 13.8 mph - N/A   Clear
9:35 AM 54.1 °F - 26.6 °F 35% 30.11 in 10.0 mi West 13.8 mph - N/A   Clear
9:55 AM 54.9 °F - 27.5 °F 35% 30.12 in 10.0 mi West 15.0 mph 19.6 mph N/A   Clear
10:15 AM 56.3 °F - 28.8 °F 35% 30.13 in 10.0 mi West 16.1 mph 21.9 mph N/A   Clear
10:55 AM 55.9 °F - 30.6 °F 38% 30.12 in 10.0 mi WNW 21.9 mph 29.9 mph N/A   Clear
11:15 AM 56.5 °F - 29.8 °F 36% 30.13 in 10.0 mi WNW 16.1 mph 28.8 mph N/A   Clear
11:35 AM 58.3 °F - 30.6 °F 35% 30.13 in 10.0 mi NW 20.7 mph 27.6 mph N/A   Clear
11:55 AM 58.3 °F - 30.2 °F 34% 30.13 in 10.0 mi NW 19.6 mph 27.6 mph N/A   Clear
12:15 PM 59.2 °F - 30.2 °F 33% 30.12 in 10.0 mi WNW 18.4 mph 24.2 mph N/A   Clear
12:35 PM 59.2 °F - 29.3 °F 32% 30.12 in 10.0 mi NW 13.8 mph 25.3 mph N/A   Clear
12:55 PM 59.2 °F - 29.1 °F 32% 30.11 in 10.0 mi NNW 17.3 mph 23.0 mph N/A   Clear
1:15 PM 60.3 °F - 29.3 °F 31% 30.11 in 10.0 mi NW 13.8 mph 21.9 mph N/A   Clear
1:35 PM 59.9 °F - 29.1 °F 31% 30.12 in 10.0 mi NW 17.3 mph - N/A   Clear
1:55 PM 57.9 °F - 28.8 °F 33% 30.12 in 10.0 mi NW 10.4 mph 19.6 mph N/A   Clear
2:15 PM 57.7 °F - 27.3 °F 31% 30.12 in 10.0 mi NW 16.1 mph 23.0 mph N/A   Scattered Clouds
2:35 PM 57.4 °F - 26.1 °F 30% 30.11 in 10.0 mi NW 17.3 mph 25.3 mph N/A   Clear
2:55 PM 59.2 °F - 24.6 °F 27% 30.12 in 10.0 mi NW 19.6 mph 26.5 mph N/A   Clear
3:15 PM 59.0 °F - 26.6 °F 29% 30.12 in 10.0 mi NW 11.5 mph 18.4 mph N/A   Clear
3:55 PM 58.3 °F - 25.2 °F 28% 30.13 in 10.0 mi WNW 12.7 mph - N/A   Clear
4:15 PM 57.6 °F - 23.7 °F 27% 30.14 in 10.0 mi WNW 13.8 mph - N/A   Clear
4:55 PM 52.3 °F - 23.4 °F 32% 30.15 in 10.0 mi WNW 9.2 mph - N/A   Clear
5:15 PM 47.5 °F - 22.5 °F 37% 30.16 in 10.0 mi NW 3.5 mph - N/A   Clear
5:35 PM 46.9 °F - 22.5 °F 38% 30.16 in 10.0 mi NW 5.8 mph - N/A   Clear
5:55 PM 46.9 °F - 23.0 °F 39% 30.16 in 10.0 mi NW 4.6 mph - N/A   Clear
6:15 PM 43.3 °F 39.9 °F 21.9 °F 43% 30.18 in 10.0 mi NNW 5.8 mph - N/A   Clear
6:35 PM 42.3 °F 37.9 °F 22.3 °F 45% 30.18 in 10.0 mi WNW 6.9 mph - N/A   Clear
6:55 PM 43.9 °F 39.3 °F 22.5 °F 43% 30.19 in 10.0 mi West 8.1 mph - N/A   Clear
7:15 PM 44.6 °F 38.8 °F 24.4 °F 45% 30.19 in 10.0 mi WNW 11.5 mph - N/A   Clear
7:35 PM 46.6 °F - 25.7 °F 44% 30.19 in 10.0 mi WNW 12.7 mph - N/A   Clear
7:55 PM 44.6 °F 41.4 °F 25.7 °F 48% 30.20 in 10.0 mi WNW 5.8 mph - N/A   Clear
8:15 PM 42.4 °F 38.1 °F 25.5 °F 51% 30.21 in 10.0 mi West 6.9 mph - N/A   Clear
8:35 PM 41.2 °F - 25.7 °F 54% 30.22 in 10.0 mi Calm Calm - N/A   Clear
8:55 PM 42.6 °F 39.9 °F 26.1 °F 52% 30.22 in 10.0 mi North 4.6 mph - N/A   Clear
9:15 PM 39.2 °F 35.9 °F 25.9 °F 59% 30.22 in 10.0 mi North 4.6 mph - N/A   Clear
9:55 PM 36.5 °F - 25.2 °F 64% 30.23 in 10.0 mi Calm Calm - N/A   Clear
10:15 PM 31.6 °F - 22.3 °F 68% 30.24 in 10.0 mi Calm Calm - N/A   Clear
10:35 PM 34.2 °F - 23.5 °F 65% 30.25 in 10.0 mi Calm Calm - N/A   Clear
10:55 PM 33.8 °F - 23.4 °F 66% 30.26 in 10.0 mi Calm Calm - N/A   Clear
11:15 PM 30.2 °F - 19.6 °F 65% 30.26 in 10.0 mi Calm Calm - N/A   Clear
11:35 PM 30.6 °F - 21.7 °F 70% 30.27 in 10.0 mi Calm Calm - N/A   Clear
11:55 PM 31.5 °F - 22.8 °F 70% 30.27 in 10.0 mi Calm Calm - N/A   Clear